This is the latest recevied weather packets stored in our database for station/object KG4GJX. If no packets are shown the sender has not sent any weather packets the latest 10 day(s).
| Time | Temp. | Humidity | Pressure | Rain* | Wind** | Luminosity | Snow |
|---|---|---|---|---|---|---|---|
| 1777836504 | 20° C | 43% | 1018.9 hPa | 0 mm | - | - | - |
| 1777835841 | 19.44° C | 44% | 1018.9 hPa | 0 mm | - | - | - |
| 1777835179 | 19.44° C | 42% | 1019.3 hPa | 0 mm | - | - | - |
| 1777834517 | 20° C | 42% | 1019.3 hPa | 0 mm | - | - | - |
| 1777833853 | 19.44° C | 42% | 1019.3 hPa | 0 mm | - | - | - |
| 1777833192 | 18.89° C | 50% | 1019.6 hPa | 0 mm | - | - | - |
| 1777832526 | 18.33° C | 46% | 1019.6 hPa | 0 mm | - | - | - |
| 1777831864 | 19.44° C | 46% | 1019.6 hPa | 0 mm | - | - | - |
| 1777831202 | 18.33° C | 46% | 1019.9 hPa | 0 mm | - | - | - |
| 1777828743 | 17.78° C | 51% | 1020.3 hPa | 0 mm | - | - | - |
| 1777828082 | 16.67° C | 50% | 1020.6 hPa | 0 mm | - | - | - |
| 1777827417 | 15.56° C | 52% | 1020.6 hPa | 0 mm | - | - | - |
| 1777826755 | 15.56° C | 54% | 1020.6 hPa | 0 mm | - | - | - |
| 1777826093 | 15.56° C | 48% | 1020.6 hPa | 0 mm | - | - | - |
| 1777825430 | 16.11° C | 54% | 1020.9 hPa | 0 mm | - | - | - |
| 1777824768 | 16.11° C | 54% | 1020.9 hPa | 0 mm | - | - | - |
| 1777824105 | 15.56° C | 53% | 1020.9 hPa | 0 mm | - | - | - |
| 1777823444 | 15° C | 56% | 1020.9 hPa | 0 mm | - | - | - |
| 1777822778 | 14.44° C | 55% | 1021.3 hPa | 0 mm | - | - | - |
| 1777822116 | 14.44° C | 53% | 1021.3 hPa | 0 mm | - | - | - |
| 1777821453 | 14.44° C | 55% | 1021.3 hPa | 0 mm | - | - | - |
| 1777820791 | 14.44° C | 57% | 1021.3 hPa | 0 mm | - | - | - |
| 1777820129 | 15° C | 60% | 1021.3 hPa | 0 mm | - | - | - |
| 1777819466 | 14.44° C | 59% | 1021.3 hPa | 0 mm | - | - | - |
| 1777818803 | 13.89° C | 62% | 1021.3 hPa | 0 mm | - | - | - |
* Rain latest hour (hover to see other rain measurements)
** Current wind speed in m/s (hover to see current wind gust speed)